Hourly Data Report for January 04, 2005

TORONTO CITY
ONTARIO

43°40'00.000" N
79°24'00.000" W
112.50 m
6158355
71508
XTO

Download Data

Hourly Data (January 2005)
Hourly Data Report for January 4, 2005
TIME
LST
Temp Definition
°C
Dew Point Definition
°C
Rel Hum Definition
%
Precip. Amount Definition
mm

Wind Dir Definition
10's deg

Wind Spd Definition
km/h
Visibility Definition
km
Stn Press Definition
kPa
Hmdx Definition


Wind Chill Definition


Weather Definition


00:00 1.9 0.9 93   LegendMM LegendMM   100.93     LegendNANA
01:00 1.4 0.7 95   LegendMM LegendMM   100.91     LegendNANA
02:00 1.2 0.7 96   LegendMM LegendMM   100.93     LegendNANA
03:00 1.6 1.1 96   LegendMM LegendMM   100.96     LegendNANA
04:00 1.7 0.4 91   LegendMM LegendMM   100.96     LegendNANA
05:00 1.6 -0.3 87   LegendMM LegendMM   100.99     LegendNANA
06:00 1.4 -0.7 86   LegendMM LegendMM   101.05     LegendNANA
07:00 0.9 -1.6 83   LegendMM LegendMM   101.13     LegendNANA
08:00 0.4 -2.8 79   LegendMM LegendMM   101.25     LegendNANA
09:00 -0.2 -3.8 77   LegendMM LegendMM   101.23     LegendNANA
10:00 0.0 -4.0 74   LegendMM LegendMM   101.24     LegendNANA
11:00 0.7 -3.7 72   LegendMM LegendMM   101.32     LegendNANA
12:00 1.8 -2.8 71   LegendMM LegendMM   101.25     LegendNANA
13:00 1.4 -3.6 69   LegendMM LegendMM   101.14     LegendNANA
14:00 1.7 -3.7 67   LegendMM LegendMM   101.14     LegendNANA
15:00 1.8 -3.7 67   LegendMM LegendMM   101.09     LegendNANA
16:00 1.9 -3.6 67   LegendMM LegendMM   101.08     LegendNANA
17:00 1.3 -3.8 69   LegendMM LegendMM   101.12     LegendNANA
18:00 1.2 -3.6 70   LegendMM LegendMM   101.17     LegendNANA
19:00 0.9 -3.8 71   LegendMM LegendMM   101.18     LegendNANA
20:00 0.8 -4.0 70   LegendMM LegendMM   101.16     LegendNANA
21:00 0.2 -4.4 71   LegendMM LegendMM   101.11     LegendNANA
22:00 0.1 -4.6 71   LegendMM LegendMM   101.09     LegendNANA
23:00 0.3 -4.1 72   LegendMM LegendMM   101.16     LegendNANA

Notes on Data Quality.

Legend

  • E = Estimated
  • M = Missing
  • NA = Not Available*
  • [empty] = Indicates an unobserved value
Date modified: